This is the latest recevied weather packets stored in our database for station/object K6GKS. If no packets are shown the sender has not sent any weather packets the latest 10 day(s).
| Time | Temp. | Humidity | Pressure | Rain* | Wind** | Luminosity | Snow |
|---|---|---|---|---|---|---|---|
| 1787693583 | 32.22° C | 30% | 1013.9 hPa | 0 mm | - | - | - |
| 1787693403 | 31.67° C | 31% | 1014.2 hPa | 0 mm | - | - | - |
| 1787693221 | 31.67° C | 31% | 1014.2 hPa | 0 mm | - | - | - |
| 1787693043 | 31.67° C | 32% | 1014.1 hPa | 0 mm | - | - | - |
| 1787692862 | 32.22° C | 31% | 1013.9 hPa | 0 mm | - | - | - |
| 1787692682 | 32.22° C | 31% | 1014 hPa | 0 mm | - | - | - |
| 1787692503 | 32.22° C | 33% | 1014.2 hPa | 0 mm | - | - | - |
| 1787692322 | 31.67° C | 34% | 1014.2 hPa | 0 mm | - | - | - |
| 1787692142 | 31.67° C | 33% | 1014 hPa | 0 mm | - | - | - |
| 1787691963 | 31.67° C | 35% | 1014.1 hPa | 0 mm | - | - | - |
| 1787691782 | 31.67° C | 34% | 1014.1 hPa | 0 mm | - | - | - |
| 1787691602 | 31.67° C | 34% | 1014.3 hPa | 0 mm | - | - | - |
| 1787691422 | 31.11° C | 35% | 1014.2 hPa | 0 mm | - | - | - |
| 1787691242 | 31.11° C | 36% | 1014.3 hPa | 0 mm | - | - | - |
| 1787691062 | 31.11° C | 36% | 1014.2 hPa | 0 mm | - | - | - |
| 1787690882 | 31.11° C | 37% | 1014.4 hPa | 0 mm | - | - | - |
| 1787690702 | 31.11° C | 36% | 1014.4 hPa | 0 mm | - | - | - |
| 1787690522 | 31.11° C | 36% | 1014.4 hPa | 0 mm | - | - | - |
| 1787690342 | 30.56° C | 38% | 1014.3 hPa | 0 mm | - | - | - |
| 1787690162 | 30° C | 39% | 1014.5 hPa | 0 mm | - | - | - |
| 1787689983 | 30° C | 37% | 1014.4 hPa | 0 mm | - | - | - |
| 1787689803 | 30° C | 36% | 1014.4 hPa | 0 mm | - | - | - |
| 1787689622 | 30° C | 38% | 1014.5 hPa | 0 mm | - | - | - |
| 1787689443 | 29.44° C | 38% | 1014.4 hPa | 0 mm | - | - | - |
| 1787689262 | 29.44° C | 39% | 1014.3 hPa | 0 mm | - | - | - |
* Rain latest hour (hover to see other rain measurements)
** Current wind speed in m/s (hover to see current wind gust speed)